Zurück zum Katalog

COSMOS 1629

AktivMilitärGEO
NORAD 15574·PAYLOAD·🇷🇺 Russia

Gestartet Feb 21, 1985 von Baikonur Cosmodrome

Loading…

TLE

AktuellSource: Space-Track

Epoche: Sep 14, 2026, 11:01 UTC

1 15574U 85016A   26257.45924556  .00000109  00000-0  00000-0 0  9994
2 15574   8.9723 313.9579 0007699 272.0319 141.1934  1.00347754151354

Verfolge COSMOS 1629 in Echtzeit mit AllMySat

Download on the App Store